Regional Weather Roundup
Issued by NWS

Home | Current Version | Previous Version | Text Only | Print | Product List | Glossary Off
Versions: 1 2 3 4 5 6 7 8 9 10 11 12 13 14 15 16 17 18 19 20 21 22 23 24 25 26 27 28 29 30 31 32 33 34 35 36 37 38 39 40 41 42 43 44 45 46 47 48 49 50

232
ASUS43 KMKX 191511
RWRWI

WISCONSIN REGIONAL WEATHER ROUNDUP
NATIONAL WEATHER SERVICE MILWAUKEE/SULLIVAN WI
900 AM CST THU JAN 19 2017

NOTE: "FAIR" INDICATES FEW OR NO CLOUDS BELOW 12,000 FEET WITH NO
SIGNIFICANT WEATHER AND/OR OBSTRUCTIONS TO VISIBILITY.

WIZ001-002-006>008-014>016-023>028-191600-
NORTHWEST WISCONSIN

CITY           SKY/WX    TMP DP  RH WIND       PRES   REMARKS
SUPERIOR ARPT  CLOUDY    36  32  88 SW7       29.80S WCI  30
ASHLAND        CLOUDY    35  32  88 S7        29.82F FOG     WCI  29
HAYWARD        PTSUNNY   32  30  92 S6        29.83S FOG     WCI  26
SIREN          CLOUDY    32  31  97 S8        29.81S FOG     WCI  25
CUMBERLAND     FOG       30  30 100 SE5       29.84S VSB 1/2 WCI  25
RICE LAKE      FOG       31  31  99 SE6       29.86F VSB 1/4 WCI  25
CHETEK         NOT AVBL
LADYSMITH      FOG       33  33  99 S6        29.88F VSB 3/4 WCI  28
EAU CLAIRE     FOG       30  30 100 NE3       29.87S VSB 1
MENOMONIE        N/A    N/A N/A N/A MISG        N/A
NEW RICHMOND   SUNNY     33  32  96 SE7       29.82F WCI  26
OSCEOLA        SUNNY     32  32 100 E5        29.84F WCI  27
$$

WIZ003>005-009-010-017-018-191600-
NORTH CENTRAL WISCONSIN

CITY           SKY/WX    TMP DP  RH WIND       PRES   REMARKS
MANITOWISH WTR FOG       32  32 100 S9        29.84S VSB 1/2 WCI  24
ARBOR VITAE    FOG       33  32  96 S8        29.85S VSB 1/4 WCI  26
WOODRUFF       FOG       33  32  96 S8        29.85S VSB 1/4 WCI  26
RHINELANDER    FOG       32  32 100 SW8       29.88R VSB 1/4 WCI  25
EAGLE RIVER    FOG       32  32 100 SW5       29.86R VSB 1/2 WCI  27
LAND O LAKES   FOG       32  32 100 SW6       29.86S VSB 1/4 WCI  27
PHILLIPS       FOG       32  32 100 S7        29.86S VSB 3/4 WCI  26
TOMAHAWK       FOG       32  31  97 CALM      29.90R VSB 3/4
MEDFORD        FOG       31  31  99 SE3       29.88S VSB<1/4
MERRILL        FOG       32  32 100 CALM        N/A  VSB 1/2
$$

WIZ029-030-035-036-043>047-191600-
CENTRAL WISCONSIN

CITY           SKY/WX    TMP DP  RH WIND       PRES   REMARKS
WAUSAU         FOG       31  31 100 S3        29.90S VSB 1/4
MOSINEE        FOG       32  32 100 CALM      29.92S VSB 1/8
MARSHFIELD     FOG       31  31 100 E3        29.88S VSB<1/4
STEVENS POINT  FOG       30  30 100 CALM      29.91F VSB<1/4
WAUPACA        FOG       35  33  94 CALM      29.94S VSB 1/2
WAUTOMA        FOG       33  32  96 SE6       29.94S VSB 1/4 WCI  28
WISC RAPIDS    FOG       32  32 100 E3        29.92S VSB<1/4
CAMP DOUGLAS   FOG       32  30  93 SE5       29.91S VSB 1/2 WCI  27
$$

WIZ011>013-019>022-031-037>040-048>050-191600-
NORTHEAST WISCONSIN

CITY           SKY/WX    TMP DP  RH WIND       PRES   REMARKS
ANTIGO         FOG       30  30 100 SW7       29.91S VSB 1/4 WCI  23
SHAWANO        FOG       34  33  95 W3        29.94F VSB 1
OCONTO         CLOUDY    32  32  99 SW3       29.96R
STURGEON BAY   FOG       32  32 100 SW6       29.97R VSB 1/2 WCI  26
GREEN BAY      FOG       35  34  96 SW7       29.96R VSB 1   WCI  29
MANITOWOC      CLOUDY    34  32  92 S3        29.97S FOG
APPLETON       FOG       32  32 100 SW6       29.92F VSB 1/4 WCI  26
CLINTONVILLE   FOG       32  32 100 CALM      29.94S VSB 3/4
OSHKOSH        FOG       32  31  96 S5        29.94S VSB 1/4 WCI  27
$$

WIZ032>034-041-042-053>061-191600-
SOUTHWEST WISCONSIN

CITY           SKY/WX    TMP DP  RH WIND       PRES   REMARKS
LA CROSSE      CLOUDY    35  32  88 S9        29.91S FOG     WCI  28
SPARTA         FOG       27  27 100 CALM      29.90F VSB 1/4
VIROQUA        CLOUDY    31  31 100 S3        29.90R VSB<1/4
BOSCOBEL       CLOUDY    34  32  92 CALM      29.94S FOG
PRAIRIE DU CHI FOG       32  31  98 CALM      29.93R VSB 3/4
PLATTEVILLE    CLOUDY    31  31 100 SE7       29.93S VSB<1/4 WCI  25
$$

WIZ056-057-062-063-064-067-068-191600-
SOUTH CENTRAL WISCONSIN

CITY           SKY/WX    TMP DP  RH WIND       PRES   REMARKS
REEDSBURG      FOG       31  31 100 S5        29.92S VSB 1/4 WCI  27
BARABOO/DELLS  FOG       31  31  99 S5        29.93R VSB<1/4 WCI  26
LONE ROCK      FOG       33  31  92 SE6       29.95R VSB 1/4 WCI  28
MINERAL POINT  FOG       32  32 100 E5        29.92F VSB<1/4 WCI  27
MADISON        FOG       32  32 100 S9        29.95S VSB 1/8 WCI  24
MIDDLETON      CLOUDY    33  33 100 S5        29.94S VSB<1/4 WCI  29
WATERTOWN      FOG       32  32 100 S3        29.96R VSB 1/4
MONROE         SNOW      30  30 100 CALM      29.93F VSB<1/4
JANESVILLE     FOG       32  32 100 E5        29.95S VSB 1/4 WCI  27
$$

WIZ051-052-058>065-066-070>072-191600-
SOUTHEAST WISCONSIN

CITY           SKY/WX    TMP DP  RH WIND       PRES   REMARKS
MILWAUKEE      FOG       33  32  96 SW6       29.99R VSB 1/4 WCI  28
WAUKESHA       FOG       30  30 100 S5        29.98R VSB 1/8 WCI  25
MILWAUKEE/TIMM FOG       34  30  86 SW5       29.99R VSB 1/2 WCI  30
RACINE         FOG       33  32  96 S5        30.00S VSB<1/4 WCI  29
KENOSHA        FOG       33  32  96 S8        29.98S VSB<1/4 WCI  26
FOND DU LAC    FOG       32  30  92 S5        29.95R VSB 1/4 WCI  27
SHEBOYGAN      FOG       33  31  92 SE3       29.97R VSB 1/2
WEST BEND      FOG       32  32 100 S5        29.98R VSB<1/4 WCI  27
JUNEAU         FOG       31  31 100 S6        29.96R VSB<1/4 WCI  25
$$

LSZ147-162-191600-
LAKE SUPERIOR

STATION/POSITION TIME  TEMP    WIND        PRES    WAVE
                       AIR SEA DIR/SP/G            HT/PER
                 (UTC) (F)     (DEG/KT/KT) (MB)    (FT/S)
DEVILS ISLAND    1500   35     180/  7/ 11 1010.4F
PORT WING        1430   35     190/  2/  3 1009.5S
SAXON HARBOR     1440   36     190/  4/  9 1009.8F
$$

LMZ867-665-643>646-191600-
LAKE MICHIGAN

STATION/POSITION TIME  TEMP    WIND        PRES    WAVE
                       AIR SEA DIR/SP/G            HT/PER
                 (UTC) (F)     (DEG/KT/KT) (MB)    (FT/S)
NORTHPORT PIER   1430   31     220/  2/  7 1013.9S
SISTER BAY       1450   32     230/ 10/ 12   N/A
KEWAUNEE LAKESHO 1442   33     230/  1/  5 1014.5R
SHEBOYGAN LAKESH 1500   33     150/  8/  9 1015.9R
PORT WASHINGTON  1440   34     180/  4/  5 1016.6R
MILWAUKEE LAKESH 1450   32     200/  7/  7   N/A
KENOSHA   LAKESH 1500   33     200/  5/  8 1015.6
$$

TC  - TEMPERATURE IN CELSIUS
VSB - VISIBILITY IN STATUTE MILES
WCI - WIND CHILL INDEX
HX  - HEAT INDEX





USA.gov is the U.S. government's official web portal to all federal, state and local government web resources and services.